Regional Weather Roundup
Issued by NWS

Home | Current Version | Previous Version | Text Only | Print | Product List | Glossary On
Versions: 1 2 3 4 5 6 7 8 9 10 11 12 13 14 15 16 17 18 19 20 21 22 23 24 25 26 27 28 29 30 31 32 33 34 35 36 37 38 39 40 41 42 43 44 45 46 47 48 49 50
000
ASUS43 KDTX 251401
RWRMI
MICHIGAN HOURLY REGIONAL WEATHER ROUNDUP
NATIONAL WEATHER SERVICE DETROIT/PONTIAC MI
900 AM EST SUN JAN 25 2015

NOTE: "FAIR" INDICATES FEW OR NO CLOUDS BELOW 12,000 FEET WITH NO
SIGNIFICANT WEATHER AND/OR OBSTRUCTION TO VISIBILITY.

MIZ047>049-052>055-059>063-066>070-074>076-081>083-251500-
SOUTHEAST LOWER MICHIGAN

CITY           SKY/WX    TMP DP  RH WIND       PRES   REMARKS
ADRIAN         LGT SNOW  28  26  92 E16       29.81R VSB 1   WCI  16
ALMA           PTCLDY    18  14  82 NE15      29.90R WCI   4
ANN ARBOR      CLOUDY    25  19  78 NE16      29.83R WCI  12
BAD AXE        FLURRIES  19  13  77 NE14      29.92S WCI   5
CARO           FLURRIES  20  13  75 NE3       29.91R
DETROIT CITY   CLOUDY    26  16  65 NE14      29.86R WCI  14
DETROIT        CLOUDY    25  17  72 NE13G23   29.86R WCI  14
FLINT          CLOUDY    23  13  65 E17       29.88R WCI   9
GROSSE ILE     CLOUDY    27  19  74 NE14      29.84R WCI  15
HILLSDALE      LGT SNOW  31  30  96 E14       29.77R WCI  21
HOWELL         CLOUDY    23  16  75 NE12G17   29.84R WCI  12

CITY           SKY/WX    TMP DP  RH WIND       PRES   REMARKS
JACKSON        CLOUDY    27  20  75 NE7       29.81R WCI  19
LAMBERTVILLE   CLOUDY    30  25  80 NE8G16    29.83R HAZE    WCI  23
LANSING        CLOUDY    22  15  75 NE15      29.86R WCI   9
LAPEER         CLOUDY    20  12  71 NE12      29.88S WCI   8
MASON          CLOUDY    24  18  78 NE14G20   29.84R WCI  12
MONROE         CLOUDY    27  21  80 E9        29.82R WCI  17
MT. CLEMENS    CLOUDY    24  17  73 N10       29.84R WCI  13
PONTIAC        CLOUDY    21  13  71 NE14        N/A  WCI   8
PORT HOPE        N/A     20  12  71 N20       29.93R WCI   4
PORT HURON     CLOUDY    23  16  74 N12G17    29.89R WCI  12
TRI CITIES     MOCLDY    18  10  71 NE20      29.92R WCI   2
TROY           CLOUDY    25  16  68 NE14G23   29.88R WCI  13
SAGINAW HB     MOCLDY    19  14  79 N15G21    29.92R WCI   5
$$
MIZ043>046-050>051-056>058-064>065-071>073-077>080-251500-
SOUTHWEST LOWER MICHIGAN

CITY           SKY/WX    TMP DP  RH WIND       PRES   REMARKS
BATTLE CREEK   LGT SNOW  28  21  75 NE14      29.81R WCI  17
BENTON HARBOR  CLOUDY    32  30  92 E13G20    29.77R FOG     WCI  22
BIG RAPIDS     PTCLDY    15  11  83 E9        29.88R WCI   3
COLDWATER      LGT SNOW  31  29  94 MISG      29.77R
FREMONT        FAIR      19   9  67 NE13G18   29.87R WCI   5
HOLLAND        CLOUDY    29  20  69 NE10      29.83R WCI  20
GRAND RAPIDS   CLOUDY    24  16  71 NE18      29.84R WCI  10
IONIA          CLOUDY    23  16  74 NE16G22   29.86R WCI  10
KALAMAZOO      LGT SNOW  28  23  81 NE12      29.80R WCI  18
LUDINGTON      MOCLDY    18   8  64 E12       29.92R WCI   6
MARSHALL       LGT SNOW  25  21  83 NE8       29.80R WCI  17
MOUNT PLEASANT PTCLDY    16  10  79 N8        29.91S WCI   5
MUSKEGON       CLOUDY    24  14  65 E14       29.86R WCI  12
SOUTH HAVEN    LGT SNOW  32  28  86 E13G20    29.79R WCI  22
$$
MIZ016>042-251500-
NORTHERN LOWER MICHIGAN

CITY           SKY/WX    TMP DP  RH WIND       PRES   REMARKS
ALPENA         CLEAR      7   2  80 N5        29.98R WCI  -2
BEAVER ISLAND  PTCLDY     6   0  78 CALM      30.01R
BELLAIRE       PTCLDY     6   1  79 CALM      30.00R
CADILLAC       PTCLDY     7   3  83 NE8       29.88R WCI  -5
CHARLEVOIX     PTCLDY     5  -2  73 NE5       30.01R WCI  -4
FRANKFORT      FAIR      12   3  66 E10G16    29.96R WCI  -1
GAYLORD        PTCLDY     4   1  88 NE8       29.90R WCI  -9
GRAYLING       PTCLDY     1  -2  88 NE3       29.93R
HARBOR SPRINGS PTCLDY     6  -1  70 NE7       29.98R WCI  -5
HOUGHTON LAKE  FAIR       6   2  83 NE8       29.91R WCI  -7
MANISTEE       PTCLDY    12   1  62 E10G17    29.94R WCI  -1
OSCODA         FLURRIES  15   9  77 N12       29.95R WCI   1
PELLSTON       PTCLDY    -5  -9  83 CALM      30.00R
ROGERS CITY    PTCLDY    12   6  79 NE9       30.00R WCI  -1
TRAVERSE CITY  MOCLDY     9   3  77 E7        29.97R WCI  -2
$$
MIZ007>008-015-251500-
EASTERN UPPER MICHIGAN

CITY           SKY/WX    TMP DP  RH WIND       PRES   REMARKS
KINROSS        MOCLDY    -2  -6  84 N3        30.00R
MACKINAC ISLAN MOCLDY     4  -3  74 NE9       30.00R WCI -10
NEWBERRY       MOCLDY     0  -2  92 CALM      29.99R
S. S. MARIE    MOCLDY    -1  -8  72 NE6       30.00R WCI -13
MUNISING         N/A     17   8  67 NE14      30.00S WCI   3
$$
MIZ004>006-011>014-085-251500-
CENTRAL UPPER MICHIGAN

CITY           SKY/WX    TMP DP  RH WIND       PRES   REMARKS
MANISTIQUE     FLURRIES   8   5  87 CALM      30.01R
ESCANABA       CLOUDY    16   7  67 NE7       30.00R WCI   6
MENOMINEE      CLOUDY    16   7  67 E12G22    29.99R WCI   3
SAWYER-GWINN   LGT SNOW  14   9  79 NE9       29.96R WCI   2
$$
MIZ001>003-009>011-084-251500-
WESTERN UPPER MICHIGAN

CITY           SKY/WX    TMP DP  RH WIND       PRES   REMARKS
IRON MOUNTAIN  FLURRIES  15   6  67 NE6       29.96R WCI   6
HOUGHTON       LGT SNOW  12   6  77 E6        30.01R WCI   3
COPPER HARBOR    N/A     15   7  70 E9G21     30.05R WCI   3
IRONWOOD       CLOUDY    12   5  73 E12       29.95R WCI  -2
$$

ABBREVIATIONS USED IN REMARKS
   TC - TEMPERATURE IN CELSIUS
  WCI - WIND CHILL INDEX
   HX - HEAT INDEX
  VSB - VISIBILITY




USA.gov is the U.S. government's official web portal to all federal, state and local government web resources and services.